DW1736 Weather Reports


time (UTC)temp
F
wind
direction
speed
knots
gust
knots
rain 1hr
in
rain 24hr
in
rain mn
in
humidity
%
barometer
mb
20260507130525 57 68 1.7 6.1 0.00 0.07 0.03 83 1011.1
20260507125525 57 0.0 0.0 0.01 0.07 0.03 88 1010.8
20260507124525 57 0.0 1.7 0.01 0.07 0.03 88 1010.6
20260507123538 57 0.0 0.0 0.01 0.07 0.03 90 1010.6
20260507122538 58 0.0 0.0 0.02 0.07 0.03 92 1010.7
20260507121538 58 0.0 0.0 0.02 0.07 0.03 93 1010.7
20260507120558 58 0.0 0.0 0.02 0.07 0.03 93 1010.6
20260507115545 58 0.0 0.0 0.01 0.06 0.02 93 1010.5
20260507114558 58 0.0 0.0 0.01 0.06 0.02 92 1010.4
20260507113545 58 0.0 3.5 0.01 0.06 0.02 91 1010.7
20260507112538 58 0.0 0.0 0.00 0.05 0.01 89 1010.5
20260507111538 58 0.0 1.7 0.00 0.05 0.01 89 1010.6
20260507110558 59 0.0 1.7 0.00 0.05 0.01 90 1010.4
20260507105538 59 0.0 0.0 0.00 0.05 0.01 91 1009.9
20260507104525 59 0.0 0.0 0.01 0.05 0.01 92 1009.8
20260507103538 59 0.0 0.0 0.01 0.05 0.01 92 1009.6
20260507102538 59 0.0 0.0 0.01 0.05 0.01 93 1009.9
20260507101538 59 0.0 0.0 0.01 0.05 0.01 93 1009.7
20260507100538 60 0.0 0.0 0.01 0.05 0.01 93 1009.7
20260507095538 60 0.0 0.0 0.01 0.05 0.01 92 1009.8
20260507094525 61 0.0 0.0 0.00 0.04 0.00 91 1009.7
20260507093525 61 0.0 0.0 0.00 0.04 0.00 91 1009.6
20260507092537 61 0.0 0.0 0.00 0.04 0.00 91 1009.4
20260507091538 61 0.0 0.0 0.00 0.04 0.00 90 1009.2
20260507090538 62 0.0 0.0 0.00 0.04 0.00 90 1008.9
20260507085538 62 0.0 0.0 0.00 0.04 0.00 91 1008.8
20260507084538 63 0.0 0.0 0.00 0.04 0.00 92 1009.0
20260507083538 64 0.0 4.3 0.00 0.04 0.00 91 1008.8
20260507082525 64 0.0 0.0 0.00 0.04 0.00 91 1008.6
20260507081538 66 0.0 0.0 0.00 0.04 0.00 90 1008.5
20260507080538 68 0.0 0.9 0.00 0.04 0.00 89 1008.4
20260507075538 68 0.0 0.0 0.00 0.04 0.00 90 1008.4
20260507074537 69 0.0 0.0 0.00 0.04 0.00 89 1008.5
20260507073545 69 0.0 0.0 0.00 0.04 0.00 89 1008.4
20260507072538 70 0.0 0.0 0.00 0.04 0.00 88 1008.2
20260507071538 70 0.0 0.0 0.00 0.04 0.00 87 1008.0
20260507070537 70 0.0 0.0 0.00 0.04 0.00 86 1007.6
20260507065537 70 225 0.9 3.5 0.00 0.04 0.00 86 1007.2
20260507064537 70 0.0 3.5 0.00 0.04 0.00 85 1007.0
20260507063525 71 0.0 2.6 0.00 0.04 0.00 84 1006.8
20260507062559 70 225 0.9 3.5 0.00 0.04 0.00 84 1007.0
20260507061537 70 0.0 3.5 0.00 0.04 0.00 84 1007.2
20260507060537 70 0.0 3.5 0.00 0.04 0.00 83 1007.4
20260507055537 70 0.0 0.0 0.00 0.04 0.00 83 1007.6
20260507054527 70 225 0.9 5.2 0.00 0.04 0.00 83 1007.7
20260507053539 70 0.0 3.5 0.00 0.04 0.00 83 1008.0
20260507052539 70 0.0 3.5 0.00 0.04 0.00 83 1008.2
20260507051540 70 225 0.9 5.2 0.00 0.04 0.00 83 1008.4
20260507050526 70 225 0.9 6.1 0.00 0.04 0.00 83 1008.3
20260507045559 70 248 0.9 4.3 0.00 0.04 0.00 84 1008.5
20260507044526 70 0.0 0.0 0.00 0.04 0.00 84 1008.5
20260507043559 70 0.0 2.6 0.00 0.04 0.00 84 1008.5
20260507042619 70 0.0 4.3 0.00 0.04 0.00 84 1008.6
20260507041539 69 0.0 0.0 0.00 0.04 0.00 85 1008.6
20260507040539 69 0.0 2.6 0.00 0.04 0.00 85 1008.6
20260507035526 69 0.0 1.7 0.00 0.04 0.04 86 1008.3
20260507034525 69 0.0 0.9 0.00 0.04 0.04 86 1008.4
20260507033538 69 248 0.9 2.6 0.00 0.04 0.04 86 1008.4
20260507032525 69 0.0 3.5 0.00 0.04 0.04 86 1008.2
20260507031538 69 270 0.9 2.6 0.00 0.04 0.04 86 1008.3
20260507030558 69 0.0 3.5 0.00 0.04 0.04 86 1008.4
20260507025538 68 0.0 3.5 0.00 0.04 0.04 87 1008.4
20260507024525 68 0.0 0.0 0.00 0.04 0.04 87 1008.3
20260507023525 68 0.0 1.7 0.00 0.04 0.04 86 1008.4
20260507022558 68 0.0 0.0 0.00 0.04 0.04 86 1008.6
20260507021525 68 0.0 1.7 0.00 0.04 0.04 86 1008.5
20260507020538 68 0.0 0.9 0.00 0.04 0.04 86 1008.4
20260507015538 68 0.0 0.0 0.00 0.04 0.04 86 1008.5
20260507014525 68 0.0 0.0 0.00 0.04 0.04 86 1008.7
20260507013538 68 0.0 0.0 0.00 0.04 0.04 87 1008.6
20260507012525 68 0.0 0.0 0.00 0.04 0.04 87 1008.4
20260507011538 68 0.0 0.0 0.00 0.04 0.04 87 1008.7
20260507010538 68 0.0 0.0 0.00 0.04 0.04 87 1008.7
20260507005538 68 0.0 1.7 0.00 0.04 0.04 87 1008.8
20260507004538 68 0.0 0.0 0.00 0.04 0.04 86 1008.7
20260507003525 68 0.0 0.0 0.00 0.04 0.04 85 1008.7
20260507002538 69 0.0 0.0 0.00 0.04 0.04 84 1008.6
20260507001525 69 0.0 0.0 0.00 0.04 0.04 82 1008.6
20260507000538 70 0.0 0.0 0.00 0.04 0.04 80 1008.5
20260506235538 71 0.0 0.0 0.00 0.04 0.04 79 1008.5
20260506234537 72 0.0 0.0 0.00 0.04 0.04 78 1008.5
20260506233525 72 0.0 0.0 0.00 0.04 0.04 77 1008.3
20260506232525 72 0.0 0.0 0.00 0.04 0.04 76 1008.4
20260506231537 72 0.0 0.0 0.00 0.04 0.04 75 1008.3
20260506230537 73 0.0 0.9 0.00 0.04 0.04 74 1008.2
20260506225538 73 0.0 1.7 0.00 0.04 0.04 74 1008.2
20260506224537 73 0.0 2.6 0.00 0.04 0.04 73 1008.3
20260506223537 73 0.0 2.6 0.00 0.04 0.04 73 1008.3
20260506222537 74 0.0 0.9 0.00 0.04 0.04 72 1008.3
20260506221525 74 248 0.9 3.5 0.00 0.04 0.04 71 1008.4
20260506220557 74 248 0.9 4.3 0.00 0.04 0.04 70 1008.5
20260506215537 74 248 0.9 4.3 0.00 0.04 0.04 70 1008.5
20260506214557 74 248 1.7 8.7 0.00 0.04 0.04 70 1008.4
20260506213537 74 248 1.7 5.2 0.00 0.04 0.04 70 1008.5
20260506212525 74 0.0 2.6 0.00 0.04 0.04 72 1008.5
20260506211537 73 225 0.9 3.5 0.00 0.04 0.04 73 1008.5
20260506210539 73 225 0.9 3.5 0.00 0.04 0.04 73 1008.3
20260506205539 73 225 0.9 4.3 0.00 0.04 0.04 73 1008.2
20260506204537 73 0.0 7.8 0.00 0.04 0.04 74 1008.0
20260506203540 73 0.0 3.5 0.00 0.04 0.04 75 1007.9
20260506202539 72 0.0 3.5 0.00 0.04 0.04 74 1007.8
20260506201539 72 0.0 2.6 0.00 0.04 0.04 75 1007.9
20260506200539 72 270 0.9 2.6 0.00 0.04 0.04 74 1008.4
20260506195539 72 0.0 2.6 0.00 0.04 0.04 77 1007.8
20260506194526 71 0.0 1.7 0.00 0.04 0.04 77 1008.0
20260506193526 71 0.0 2.6 0.00 0.04 0.04 77 1008.6
20260506192559 70 225 0.9 6.1 0.00 0.04 0.04 77 1008.5
20260506191539 70 0.0 2.6 0.00 0.04 0.04 78 1008.8
20260506190559 70 270 0.9 4.3 0.00 0.04 0.04 77 1009.1
20260506185539 71 0.0 2.6 0.00 0.04 0.04 76 1009.3
20260506184539 71 270 0.9 6.1 0.00 0.04 0.04 76 1009.3
20260506183526 71 248 1.7 10.4 0.00 0.04 0.04 76 1009.4
20260506182526 70 0.0 3.5 0.00 0.04 0.04 78 1009.6
20260506181539 70 0.0 1.7 0.00 0.04 0.04 79 1009.9
20260506180539 69 0.0 2.6 0.00 0.04 0.04 79 1009.9
20260506175559 69 248 0.9 2.6 0.00 0.04 0.04 79 1009.9
20260506174526 69 248 0.9 3.5 0.00 0.04 0.04 79 1009.8
20260506173538 69 0.0 1.7 0.00 0.04 0.04 79 1009.7
20260506172538 69 270 0.9 4.3 0.00 0.04 0.04 80 1009.9
20260506171539 69 248 0.9 4.3 0.00 0.04 0.04 83 1009.9
20260506170559 68 0.0 3.5 0.00 0.04 0.04 87 1010.0
20260506165558 66 0.0 3.5 0.00 0.04 0.04 90 1010.2
20260506164539 66 0.0 0.9 0.00 0.04 0.04 90 1010.4
20260506163546 66 0.0 0.9 0.02 0.04 0.04 90 1010.3
20260506162526 66 0.0 1.7 0.03 0.04 0.04 91 1010.7
20260506161538 66 270 0.9 5.2 0.04 0.04 0.04 91 1011.0
20260506160538 66 0.0 0.0 0.04 0.04 0.04 93 1011.1
20260506155539 65 0.0 0.9 0.04 0.04 0.04 92 1011.2
20260506154539 66 0.0 0.0 0.04 0.04 0.04 91 1011.6
20260506153538 66 0.0 0.0 0.02 0.02 0.02 88 1011.9
20260506152526 67 0.0 0.9 0.01 0.01 0.01 85 1011.8
20260506151526 68 0.0 4.3 0.00 0.00 0.00 82 1011.8
20260506150558 69 270 0.9 10.4 0.00 0.00 0.00 78 1011.9
20260506145538 70 248 0.9 10.4 0.00 0.00 0.00 72 1012.0
20260506144538 69 0.0 2.6 0.00 0.00 0.00 72 1011.8
20260506143526 69 0.0 3.5 0.00 0.00 0.00 73 1011.5
20260506142538 69 0.0 2.6 0.00 0.00 0.00 74 1011.4
20260506141546 68 0.0 13.9 0.00 0.00 0.00 73 1011.4
20260506140538 68 0.0 2.6 0.00 0.00 0.00 73 1011.5
20260506135618 68 0.0 2.6 0.00 0.00 0.00 74 1011.5
20260506134538 68 270 0.9 8.7 0.00 0.00 0.00 73 1011.4
20260506133538 69 270 1.7 13.0 0.00 0.00 0.00 69 1011.6
20260506132538 69 270 0.9 12.2 0.00 0.00 0.00 70 1011.3
20260506131525 69 270 1.7 13.0 0.00 0.00 0.00 70 1011.3